| time (UTC) | temp F | wind direction | speed knots | gust knots | rain 1hr in | rain 24hr in | rain mn in | humidity % | barometer mb |
| 20260906214607 | 71 | 355 | 3.5 | 7.8 | 0.00 | 0.19 | 0.17 | 73 | 1019.1 |
| 20260906213051 | 70 | 45 | 3.5 | 9.6 | 0.00 | 0.19 | 0.17 | 74 | 1019.2 |
| 20260906211603 | 70 | 61 | 3.5 | 8.7 | 0.00 | 0.19 | 0.17 | 73 | 1019.3 |
| 20260906210113 | 70 | 43 | 3.5 | 8.7 | 0.00 | 0.19 | 0.17 | 73 | 1019.4 |
| 20260906204600 | 70 | 5 | 4.3 | 10.4 | 0.01 | 0.19 | 0.17 | 73 | 1019.3 |
| 20260906203059 | 70 | 71 | 3.5 | 10.4 | 0.01 | 0.19 | 0.17 | 75 | 1019.2 |
| 20260906201556 | 70 | 38 | 4.3 | 10.4 | 0.01 | 0.19 | 0.17 | 75 | 1019.2 |
| 20260906200052 | 70 | 339 | 6.1 | 13.0 | 0.01 | 0.19 | 0.17 | 75 | 1019.4 |
| 20260906194558 | 69 | 41 | 6.1 | 12.2 | 0.00 | 0.18 | 0.16 | 77 | 1019.2 |
| 20260906193047 | 69 | 22 | 7.0 | 13.0 | 0.00 | 0.18 | 0.16 | 77 | 1019.2 |
| 20260906191606 | 68 | 38 | 6.1 | 14.8 | 0.00 | 0.18 | 0.16 | 77 | 1019.2 |
| 20260906190054 | 68 | 15 | 5.2 | 11.3 | 0.01 | 0.18 | 0.16 | 77 | 1019.3 |
| 20260906184601 | 68 | 30 | 6.1 | 11.3 | 0.01 | 0.18 | 0.16 | 78 | 1019.3 |
| 20260906183051 | 68 | 76 | 5.2 | 10.4 | 0.01 | 0.18 | 0.16 | 77 | 1019.4 |
| 20260906181558 | 68 | 42 | 4.3 | 10.4 | 0.01 | 0.18 | 0.16 | 79 | 1019.3 |
| 20260906180110 | 68 | 20 | 6.1 | 10.4 | 0.00 | 0.17 | 0.15 | 79 | 1019.4 |
| 20260906174557 | 67 | 27 | 6.1 | 12.2 | 0.00 | 0.18 | 0.15 | 79 | 1019.3 |
| 20260906173100 | 67 | 9 | 6.1 | 13.0 | 0.01 | 0.18 | 0.15 | 80 | 1019.4 |
| 20260906171556 | 66 | 51 | 8.7 | 13.0 | 0.01 | 0.18 | 0.15 | 79 | 1019.4 |
| 20260906170049 | 66 | 86 | 5.2 | 13.0 | 0.01 | 0.18 | 0.15 | 83 | 1019.3 |
| 20260906164549 | 67 | 19 | 6.1 | 12.2 | 0.01 | 0.18 | 0.15 | 81 | 1019.2 |
| 20260906163051 | 67 | 76 | 8.7 | 13.9 | 0.01 | 0.17 | 0.14 | 81 | 1019.3 |
| 20260906161556 | 66 | 82 | 8.7 | 14.8 | 0.01 | 0.17 | 0.14 | 80 | 1019.4 |
| 20260906160052 | 66 | 57 | 7.8 | 13.9 | 0.01 | 0.17 | 0.14 | 82 | 1019.4 |
| 20260906154553 | 66 | 45 | 8.7 | 13.9 | 0.01 | 0.17 | 0.14 | 82 | 1019.4 |
| 20260906153110 | 66 | 23 | 9.6 | 15.6 | 0.00 | 0.16 | 0.13 | 82 | 1019.3 |
| 20260906151601 | 67 | 75 | 7.8 | 15.6 | 0.01 | 0.16 | 0.13 | 82 | 1019.4 |
| 20260906150052 | 67 | 59 | 7.8 | 14.8 | 0.01 | 0.16 | 0.13 | 82 | 1019.3 |
| 20260906144600 | 66 | 56 | 7.8 | 15.6 | 0.01 | 0.16 | 0.13 | 83 | 1019.3 |
| 20260906143056 | 66 | 84 | 8.7 | 14.8 | 0.01 | 0.16 | 0.13 | 83 | 1019.2 |
| 20260906141558 | 66 | 66 | 8.7 | 14.8 | 0.01 | 0.15 | 0.12 | 84 | 1018.9 |
| 20260906140053 | 66 | 61 | 10.4 | 18.2 | 0.01 | 0.15 | 0.12 | 81 | 1018.8 |
| 20260906134610 | 67 | 88 | 7.8 | 14.8 | 0.01 | 0.15 | 0.12 | 83 | 1018.7 |
| 20260906133104 | 67 | 50 | 9.6 | 14.8 | 0.02 | 0.15 | 0.12 | 84 | 1018.6 |
| 20260906131556 | 67 | 94 | 7.8 | 13.9 | 0.01 | 0.14 | 0.11 | 83 | 1018.3 |
| 20260906130055 | 67 | 78 | 5.2 | 13.0 | 0.01 | 0.14 | 0.11 | 84 | 1018.5 |
| 20260906124550 | 67 | 94 | 6.1 | 13.9 | 0.02 | 0.14 | 0.11 | 84 | 1018.4 |
| 20260906123056 | 67 | 53 | 7.8 | 14.8 | 0.01 | 0.13 | 0.10 | 84 | 1018.2 |
| 20260906121558 | 67 | 24 | 7.8 | 16.5 | 0.01 | 0.13 | 0.10 | 85 | 1018.1 |
| 20260906120059 | 67 | 57 | 8.7 | 14.8 | 0.01 | 0.13 | 0.10 | 86 | 1017.9 |
| 20260906114549 | 66 | 38 | 9.6 | 14.8 | 0.01 | 0.12 | 0.09 | 86 | 1017.8 |
| 20260906113047 | 66 | 92 | 8.7 | 15.6 | 0.01 | 0.12 | 0.09 | 87 | 1017.6 |
| 20260906111556 | 67 | 88 | 7.8 | 17.4 | 0.01 | 0.12 | 0.09 | 88 | 1017.4 |
| 20260906104553 | 67 | 71 | 7.8 | 13.9 | 0.01 | 0.11 | 0.08 | 86 | 1017.0 |
| 20260906103102 | 68 | 90 | 8.7 | 13.9 | 0.01 | 0.11 | 0.08 | 86 | 1016.8 |
| 20260906101547 | 67 | 32 | 5.2 | 10.4 | 0.02 | 0.11 | 0.08 | 85 | 1016.7 |
| 20260906100100 | 68 | 67 | 4.3 | 10.4 | 0.01 | 0.10 | 0.07 | 85 | 1016.3 |
| 20260906094550 | 68 | 25 | 7.0 | 11.3 | 0.01 | 0.10 | 0.07 | 85 | 1016.3 |
| 20260906093102 | 68 | 53 | 5.2 | 12.2 | 0.01 | 0.10 | 0.07 | 85 | 1016.2 |
| 20260906091558 | 68 | 89 | 3.5 | 10.4 | 0.01 | 0.09 | 0.06 | 85 | 1015.9 |
| 20260906090116 | 68 | 33 | 4.3 | 10.4 | 0.01 | 0.09 | 0.06 | 85 | 1015.7 |
| 20260906084612 | 68 | 360 | 6.1 | 12.2 | 0.01 | 0.09 | 0.06 | 85 | 1015.5 |
| 20260906083056 | 68 | 111 | 6.1 | 11.3 | 0.02 | 0.09 | 0.06 | 86 | 1015.3 |
| 20260906081558 | 68 | 31 | 5.2 | 10.4 | 0.01 | 0.08 | 0.05 | 88 | 1015.3 |
| 20260906080122 | 68 | 5 | 4.3 | 9.6 | 0.01 | 0.08 | 0.05 | 88 | 1015.3 |
| 20260906074607 | 68 | 351 | 4.3 | 10.4 | 0.01 | 0.08 | 0.05 | 88 | 1015.3 |
| 20260906073104 | 68 | 30 | 2.6 | 7.0 | 0.00 | 0.07 | 0.04 | 87 | 1015.2 |
| 20260906071550 | 68 | 15 | 4.3 | 8.7 | 0.01 | 0.07 | 0.04 | 86 | 1015.3 |
| 20260906070058 | 69 | 350 | 4.3 | 10.4 | 0.01 | 0.07 | 0.04 | 85 | 1015.2 |
| 20260906064555 | 69 | 27 | 6.1 | 8.7 | 0.01 | 0.07 | 0.04 | 85 | 1015.3 |
| 20260906063052 | 69 | 15 | 4.3 | 8.7 | 0.02 | 0.07 | 0.04 | 85 | 1015.3 |
| 20260906061605 | 69 | 26 | 3.5 | 7.8 | 0.01 | 0.06 | 0.03 | 85 | 1015.3 |
| 20260906060059 | 69 | 30 | 3.5 | 7.8 | 0.02 | 0.06 | 0.03 | 83 | 1015.3 |
| 20260906054555 | 69 | 26 | 3.5 | 7.8 | 0.02 | 0.06 | 0.03 | 83 | 1015.3 |
| 20260906053058 | 69 | 55 | 3.5 | 7.8 | 0.01 | 0.05 | 0.02 | 82 | 1015.3 |
| 20260906051559 | 69 | 63 | 3.5 | 9.6 | 0.02 | 0.05 | 0.02 | 82 | 1015.4 |
| 20260906050106 | 70 | 65 | 4.3 | 10.4 | 0.01 | 0.04 | 0.01 | 82 | 1015.2 |
| 20260906044554 | 70 | 21 | 5.2 | 10.4 | 0.01 | 0.04 | 0.01 | 82 | 1015.3 |
| 20260906043056 | 70 | 5 | 6.1 | 11.3 | 0.02 | 0.04 | 0.01 | 82 | 1015.2 |
| 20260906041604 | 70 | 33 | 5.2 | 9.6 | 0.01 | 0.03 | 0.00 | 83 | 1015.1 |
| 20260906040059 | 70 | 63 | 5.2 | 11.3 | 0.01 | 0.03 | 0.00 | 84 | 1015.1 |
| 20260906034613 | 70 | 25 | 7.0 | 13.9 | 0.01 | 0.03 | 0.03 | 84 | 1015.1 |
| 20260906033050 | 70 | 11 | 5.2 | 11.3 | 0.00 | 0.02 | 0.02 | 86 | 1015.1 |
| 20260906031557 | 69 | 360 | 7.8 | 12.2 | 0.01 | 0.02 | 0.02 | 87 | 1015.0 |
| 20260906030057 | 69 | 5 | 7.8 | 11.3 | 0.01 | 0.02 | 0.02 | 87 | 1014.9 |
| 20260906024558 | 69 | 355 | 3.5 | 8.7 | 0.01 | 0.02 | 0.02 | 88 | 1014.9 |
| 20260906023101 | 69 | 345 | 3.5 | 7.8 | 0.01 | 0.02 | 0.02 | 88 | 1014.8 |
| 20260906021601 | 69 | 342 | 4.3 | 7.8 | 0.00 | 0.01 | 0.01 | 88 | 1014.8 |
| 20260906020100 | 69 | 342 | 4.3 | 7.8 | 0.00 | 0.01 | 0.01 | 87 | 1014.7 |
| 20260906014550 | 69 | 360 | 4.3 | 7.8 | 0.00 | 0.01 | 0.01 | 87 | 1014.8 |
| 20260906013107 | 69 | 348 | 3.5 | 7.0 | 0.00 | 0.01 | 0.01 | 86 | 1014.6 |
| 20260906011559 | 69 | 345 | 1.7 | 7.0 | 0.00 | 0.01 | 0.01 | 85 | 1014.6 |
| 20260906010056 | 69 | 355 | 2.6 | 5.2 | 0.00 | 0.01 | 0.01 | 85 | 1014.8 |
| 20260906004546 | 69 | 355 | 2.6 | 7.0 | 0.00 | 0.01 | 0.01 | 85 | 1014.5 |
| 20260906003056 | 69 | 344 | 1.7 | 4.3 | 0.00 | 0.01 | 0.01 | 84 | 1014.4 |
| 20260906001555 | 70 | 360 | 0.9 | 4.3 | 0.00 | 0.01 | 0.01 | 82 | 1014.6 |
| 20260906000104 | 70 | 346 | 0.9 | 5.2 | 0.00 | 0.01 | 0.01 | 82 | 1014.5 |
| 20260905234620 | 71 | 340 | 0.9 | 4.3 | 0.00 | 0.01 | 0.01 | 80 | 1014.6 |
| 20260905233058 | 72 | 360 | 1.7 | 4.3 | 0.00 | 0.01 | 0.01 | 79 | 1014.6 |
| 20260905231555 | 73 | 0 | 0.0 | 2.6 | 0.00 | 0.01 | 0.01 | 76 | 1014.5 |
| 20260905230105 | 74 | 352 | 0.9 | 3.5 | 0.00 | 0.01 | 0.01 | 75 | 1014.6 |
| 20260905224606 | 76 | 346 | 0.9 | 4.3 | 0.00 | 0.01 | 0.01 | 73 | 1014.6 |
| 20260905223057 | 78 | 355 | 1.7 | 4.3 | 0.00 | 0.01 | 0.01 | 70 | 1014.5 |
| 20260905221553 | 78 | 351 | 1.7 | 3.5 | 0.00 | 0.01 | 0.01 | 71 | 1014.5 |
| 20260905220113 | 78 | 351 | 0.9 | 4.3 | 0.00 | 0.01 | 0.01 | 71 | 1014.4 |